Portada
METAR-TAF:

METAR-TAF

Aeroports :

Shell Mera, Equador

latitud: 01-30-19S, longitud: 078-03-46W, altitud: 1056 m

Observació

L'informe es va fer fa 11 hores i 5 minuts, a les 23:00 UTC
Vent 3 kt del Est/Sud-Est, variant entre Est/Nord-Est i Sud/Sud-Est
Temperatura 24°C
Humitat 74%
Pressió 1012 hPa
Visibilitat 10 km o més
Núvols disperses a una alçada de 2600 ft
Núvols disperses a una alçada de 10000 ft

METAR: SESM 012300Z 11003KT 060V160 9999 SCT026 SCT100 24/19 Q1012 RMK A2989

Hora: 05:05 (10:05 UTC)


TAF: manca

Observacions i pronòstics meteorològics de més de 4000 aeroports (METAR i TAF).

Les estacions disponibles són els punts grocs i vermells al mapa.

Posi el ratolí al punt desitjat per veure el nom de l'estació.

Feu clic per veure les observacions i els pronòstics meteorològics.

Per canviar el mapa: feu clic els botons verds amb una creu de color negre per apropar; al botó verd amb un guió per allunyar la imatge; o en les fletxes verdes per a mapes adjacents.


METAR-TAF: